sat.trackr.live / text

‹ back to catalog

STARLINK-5415

NORAD 54796 · 2022-175AQ

PAYLOAD ACTIVE UNKNOWN

§ Identity

Operator
Country
US
Launch date
2022-12-17
Launch site
AFETR
Launch vehicle
Mass (kg)
RCS (m²)

Purposes: comms

External: N2YO · Heavens-Above · Gunter

§ Orbital elements

Epoch: 2026-09-20T11:57:31.839552Z

Period
93.85 min
Inclination
53.1586°
Eccentricity
0.0001088
Mean motion
15.34391066 rev/d
Perigee alt
462.0 km
Apogee alt
463.5 km
Semi-major
6,840.9 km
B*
3.1689e-5
RAAN
219.5740°
Arg perigee
79.7788°
Mean anomaly
280.3337°
Rev number
20,974

§ Raw data

STARLINK-54151 54796U 22175AQ  26263.49828518  .00000694  00000+0  31689-4 0  99912 54796  53.1586 219.5740 0001088  79.7788 280.3337 15.34391066209748

JSON: /api/v1/satellites/54796 · /tle

For live sub-satellite position, see the globe view (requires WebGL).

§ Visibility from observer

Set your observer location to see the next 7 days of passes ≥ 10°. The values pass through the URL so the page stays shareable.

No JS? Fill the form by hand. The geolocation button needs JavaScript.